When you browse on this site, cookies collect data to enhance your experience and personalize the content and advertising you see.
Visit our Privacy Policy to learn more. By continuing to use the site, you agree to this use of cookies and data.
  • en Suisse
  • Liste des pays
  • À 7 jours
  • Température de l'eau
  • Carte météo
  • Widgets météo
  • user-avatar
    Se connecter

    Météo par heure à Kapan

    Ce jour, 25 Février, Mardi

    Heure Température Précipitation Vent Pression Humidité
    00:00 +6°C° 0 mm 4 m/s 679 mmHg 60%
    01:00 +5°C° 0 mm 4 m/s 678 mmHg 60%
    02:00 +5°C° 0 mm 4 m/s 678 mmHg 60%
    03:00 +5°C° 0 mm 4 m/s 678 mmHg 59%
    04:00 +5°C° 0 mm 4 m/s 678 mmHg 60%
    05:00 +5°C° 0 mm 4 m/s 677 mmHg 61%
    06:00 +5°C° 0 mm 4 m/s 677 mmHg 62%
    07:00 +7°C° 0 mm 3 m/s 677 mmHg 60%
    08:00 +9°C° 0 mm 3 m/s 677 mmHg 58%
    09:00 +10°C° 0 mm 3 m/s 677 mmHg 56%
    10:00 +11°C° 0 mm 3 m/s 677 mmHg 53%
    11:00 +12°C° 0 mm 3 m/s 677 mmHg 50%
    12:00 +13°C° 0 mm 3 m/s 677 mmHg 48%
    13:00 +12°C° 0 mm 3 m/s 677 mmHg 52%
    14:00 +11°C° 0 mm 4 m/s 676 mmHg 57%
    15:00 +11°C° 0 mm 4 m/s 676 mmHg 61%
    16:00 +8°C° 0.3 mm 4 m/s 677 mmHg 68%
    17:00 +7°C° 0.3 mm 3 m/s 678 mmHg 75%
    18:00 +4°C° 0.3 mm 3 m/s 679 mmHg 83%
    19:00 +3°C° 0.7 mm 3 m/s 680 mmHg 86%
    20:00 +3°C° 0.7 mm 2 m/s 680 mmHg 89%
    21:00 +2°C° 0.7 mm 2 m/s 681 mmHg 92%
    22:00 +2°C° 0.3 mm 2 m/s 682 mmHg 92%
    23:00 +1°C° 0.3 mm 2 m/s 682 mmHg 93%

    Demain, 26 Février, Mercredi

    Heure Température Précipitation Vent Pression Humidité
    00:00 +2°C° 0.3 mm 1 m/s 682 mmHg 93%
    01:00 +2°C° 0.1 mm 1 m/s 682 mmHg 91%
    02:00 +1°C° 0.1 mm 1 m/s 682 mmHg 90%
    03:00 +1°C° 0.1 mm 1 m/s 682 mmHg 88%
    04:00 +1°C° 0.1 mm 1 m/s 683 mmHg 87%
    05:00 0°C° 0.1 mm 1 m/s 683 mmHg 86%
    06:00 0°C° 0.1 mm 1 m/s 683 mmHg 85%
    07:00 +1°C° 0 mm 1 m/s 684 mmHg 81%
    08:00 +1°C° 0 mm 1 m/s 685 mmHg 76%
    09:00 +2°C° 0 mm 1 m/s 685 mmHg 72%
    10:00 +3°C° 0 mm 1 m/s 685 mmHg 71%
    11:00 +4°C° 0 mm 1 m/s 685 mmHg 71%
    12:00 +4°C° 0 mm 1 m/s 685 mmHg 71%
    13:00 +5°C° 0 mm 1 m/s 685 mmHg 70%
    14:00 +5°C° 0 mm 1 m/s 685 mmHg 69%
    15:00 +5°C° 0 mm 1 m/s 685 mmHg 68%
    16:00 +5°C° 0 mm 1 m/s 685 mmHg 70%
    17:00 +3°C° 0 mm 0 m/s 686 mmHg 72%
    18:00 +3°C° 0 mm 0 m/s 686 mmHg 74%
    19:00 +4°C° 0 mm 1 m/s 686 mmHg 71%
    20:00 +4°C° 0 mm 1 m/s 686 mmHg 68%
    21:00 +3°C° 0 mm 1 m/s 687 mmHg 65%
    22:00 +4°C° 0 mm 1 m/s 686 mmHg 63%
    23:00 +3°C° 0 mm 2 m/s 686 mmHg 61%

    Après-demain, 27 Février, Jeudi

    Heure Température Précipitation Vent Pression Humidité
    00:00 +3°C° 0 mm 2 m/s 686 mmHg 58%
    01:00 +3°C° 0 mm 2 m/s 686 mmHg 57%
    02:00 +3°C° 0 mm 2 m/s 686 mmHg 55%
    03:00 +3°C° 0 mm 2 m/s 686 mmHg 54%
    04:00 +3°C° 0 mm 2 m/s 686 mmHg 53%
    05:00 +3°C° 0 mm 2 m/s 686 mmHg 51%
    06:00 +3°C° 0 mm 2 m/s 686 mmHg 50%
    07:00 +5°C° 0 mm 2 m/s 687 mmHg 50%
    08:00 +6°C° 0 mm 2 m/s 687 mmHg 50%
    09:00 +8°C° 0 mm 2 m/s 687 mmHg 49%
    10:00 +9°C° 0 mm 2 m/s 687 mmHg 48%
    11:00 +10°C° 0 mm 2 m/s 687 mmHg 48%
    12:00 +12°C° 0 mm 2 m/s 687 mmHg 47%
    13:00 +13°C° 0 mm 2 m/s 686 mmHg 46%
    14:00 +13°C° 0 mm 2 m/s 686 mmHg 46%
    15:00 +14°C° 0 mm 2 m/s 685 mmHg 45%
    16:00 +12°C° 0 mm 2 m/s 685 mmHg 45%
    17:00 +10°C° 0 mm 2 m/s 685 mmHg 44%
    18:00 +8°C° 0 mm 2 m/s 684 mmHg 44%
    19:00 +8°C° 0 mm 3 m/s 684 mmHg 42%
    20:00 +8°C° 0 mm 3 m/s 684 mmHg 40%
    21:00 +8°C° 0 mm 3 m/s 684 mmHg 38%
    22:00 +8°C° 0 mm 3 m/s 684 mmHg 37%
    23:00 +8°C° 0 mm 3 m/s 683 mmHg 36%

    28 Février, Vendredi

    Heure Température Précipitation Vent Pression Humidité
    00:00 +8°C° 0 mm 3 m/s 683 mmHg 35%
    01:00 +8°C° 0 mm 3 m/s 682 mmHg 34%
    02:00 +8°C° 0 mm 3 m/s 682 mmHg 34%
    03:00 +8°C° 0 mm 3 m/s 682 mmHg 34%
    04:00 +8°C° 0 mm 3 m/s 681 mmHg 35%
    05:00 +6°C° 0 mm 4 m/s 681 mmHg 35%
    06:00 +6°C° 0 mm 4 m/s 681 mmHg 36%
    07:00 +9°C° 0 mm 3 m/s 681 mmHg 38%
    08:00 +10°C° 0 mm 3 m/s 681 mmHg 39%
    09:00 +11°C° 0 mm 3 m/s 681 mmHg 41%
    10:00 +12°C° 0 mm 3 m/s 681 mmHg 40%
    11:00 +13°C° 0 mm 3 m/s 681 mmHg 38%
    12:00 +16°C° 0 mm 3 m/s 680 mmHg 37%
    13:00 +16°C° 0 mm 3 m/s 680 mmHg 36%
    14:00 +16°C° 0 mm 3 m/s 680 mmHg 36%
    15:00 +15°C° 0 mm 4 m/s 680 mmHg 35%
    16:00 +13°C° 0 mm 4 m/s 679 mmHg 38%
    17:00 +12°C° 0 mm 4 m/s 679 mmHg 41%
    18:00 +10°C° 0 mm 4 m/s 679 mmHg 44%
    19:00 +8°C° 0 mm 4 m/s 679 mmHg 44%
    20:00 +8°C° 0 mm 4 m/s 679 mmHg 44%
    21:00 +7°C° 0 mm 4 m/s 679 mmHg 44%
    22:00 +8°C° 0 mm 3 m/s 680 mmHg 46%
    23:00 +8°C° 0 mm 3 m/s 680 mmHg 48%

    29 Février, Samedi

    Heure Température Précipitation Vent Pression Humidité
    00:00 +8°C° 0 mm 3 m/s 680 mmHg 49%
    01:00 +7°C° 0 mm 3 m/s 680 mmHg 51%
    02:00 +7°C° 0 mm 2 m/s 680 mmHg 53%
    03:00 +7°C° 0 mm 2 m/s 680 mmHg 54%
    04:00 +7°C° 0 mm 1 m/s 680 mmHg 56%
    05:00 +7°C° 0 mm 1 m/s 680 mmHg 58%
    06:00 +6°C° 0 mm 1 m/s 680 mmHg 60%
    07:00 +8°C° 0 mm 1 m/s 680 mmHg 58%
    08:00 +9°C° 0 mm 1 m/s 681 mmHg 55%
    09:00 +10°C° 0 mm 1 m/s 681 mmHg 53%
    10:00 +11°C° 0 mm 1 m/s 680 mmHg 53%
    11:00 +12°C° 0 mm 1 m/s 680 mmHg 53%
    12:00 +12°C° 0 mm 2 m/s 679 mmHg 53%
    13:00 +13°C° 0 mm 2 m/s 679 mmHg 52%
    14:00 +13°C° 0 mm 2 m/s 678 mmHg 51%
    15:00 +13°C° 0 mm 2 m/s 677 mmHg 51%
    16:00 +12°C° 0 mm 2 m/s 677 mmHg 57%
    17:00 +10°C° 0 mm 2 m/s 677 mmHg 63%
    18:00 +9°C° 0 mm 1 m/s 676 mmHg 69%
    19:00 +9°C° 0 mm 1 m/s 676 mmHg 72%
    20:00 +8°C° 0 mm 1 m/s 676 mmHg 75%
    21:00 +8°C° 0 mm 1 m/s 676 mmHg 78%
    22:00 +8°C° 0.4 mm 1 m/s 676 mmHg 79%
    23:00 +8°C° 0.4 mm 1 m/s 676 mmHg 80%

    1 Mars, Dimanche

    Heure Température Précipitation Vent Pression Humidité
    00:00 +8°C° 0.4 mm 1 m/s 676 mmHg 81%
    01:00 +6°C° 0 mm 2 m/s 676 mmHg 78%
    02:00 +6°C° 0 mm 2 m/s 676 mmHg 76%
    03:00 +6°C° 0 mm 2 m/s 676 mmHg 73%
    04:00 +5°C° 0.3 mm 2 m/s 676 mmHg 79%
    05:00 +4°C° 0.3 mm 2 m/s 676 mmHg 85%
    06:00 +4°C° 0.3 mm 2 m/s 676 mmHg 91%
    07:00 +3°C° 0.9 mm 2 m/s 677 mmHg 90%
    08:00 +3°C° 0.9 mm 2 m/s 677 mmHg 90%
    09:00 +3°C° 0.9 mm 2 m/s 677 mmHg 89%
    10:00 +4°C° 0.6 mm 2 m/s 678 mmHg 81%
    11:00 +3°C° 0.6 mm 3 m/s 678 mmHg 74%
    12:00 +3°C° 0.6 mm 3 m/s 679 mmHg 67%
    13:00 +4°C° 0.1 mm 4 m/s 679 mmHg 60%
    14:00 +4°C° 0.1 mm 4 m/s 680 mmHg 53%
    15:00 +5°C° 0.1 mm 5 m/s 680 mmHg 47%
    16:00 +3°C° 0 mm 4 m/s 681 mmHg 49%
    17:00 +1°C° 0 mm 4 m/s 682 mmHg 51%
    18:00 +1°C° 0 mm 3 m/s 683 mmHg 54%
    19:00 0°C° 0 mm 3 m/s 683 mmHg 56%
    20:00 +1°C° 0 mm 2 m/s 684 mmHg 57%
    21:00 -1°C° 0 mm 2 m/s 685 mmHg 59%
    22:00 -1°C° 0 mm 2 m/s 685 mmHg 58%
    23:00 -1°C° 0 mm 2 m/s 685 mmHg 58%
    Voir plus